Location: Arrodets-la-Barthe
(43.0306°N, 0.2829°E)
Time: 16:25:57
(UTC+00:00)

Lacrosse 4 Rocket - Pass Details

Date: 02 June 2022
Orbit: 541 x 611 km, 68.0° (Epoch: 30 June)

Event Time Altitude Azimuth Distance (km) Brightness Sun altitude
Exits shadow 03:30:51 - 251° (WSW) 1,970 3.6 -8.3°
Reaches altitude 10° 03:31:06 10° 252° (WSW) 1,889 3.5 -8.3°
Maximum altitude 03:34:37 25° 309° (NW) 1,173 2.9 -7.8°
Drops below altitude 10° 03:38:06 10° 5° (N) 1,862 4.7 -7.3°
Sets 03:40:37 0° 19° (NNE) 2,750 6.0 -7.0°
